TimeEDT,TemperatureF,Dew PointF,Humidity,Sea Level PressureIn,VisibilityMPH,Wind Direction,Wind SpeedMPH,Gust SpeedMPH,PrecipitationIn,Events,Conditions,WindDirDegrees,DateUTC
12:53 AM,50.0,46.0,86,30.14,10.0,Calm,Calm,-,N/A,,Clear,0,2013-09-07 04:53:00
1:53 AM,48.0,45.0,89,30.13,10.0,Calm,Calm,-,N/A,,Clear,0,2013-09-07 05:53:00
2:53 AM,46.0,45.0,96,30.12,10.0,Calm,Calm,-,N/A,,Clear,0,2013-09-07 06:53:00
3:53 AM,46.9,44.1,90,30.12,10.0,Calm,Calm,-,N/A,,Clear,0,2013-09-07 07:53:00
4:53 AM,46.0,43.0,89,30.11,10.0,Calm,Calm,-,N/A,,Clear,0,2013-09-07 08:53:00
5:53 AM,45.0,43.0,93,30.11,9.0,Calm,Calm,-,N/A,,Clear,0,2013-09-07 09:53:00
6:08 AM,44.6,42.8,93,30.10,10.0,Calm,Calm,-,N/A,,Partly Cloudy,0,2013-09-07 10:08:00
6:53 AM,43.0,41.0,93,30.11,10.0,Calm,Calm,-,N/A,,Scattered Clouds,0,2013-09-07 10:53:00
7:31 AM,46.4,44.6,93,30.11,10.0,Calm,Calm,-,N/A,,Mostly Cloudy,0,2013-09-07 11:31:00
7:38 AM,46.4,44.6,93,30.11,10.0,Calm,Calm,-,N/A,,Scattered Clouds,0,2013-09-07 11:38:00
7:44 AM,46.4,44.6,93,30.10,1.8,South,3.5,-,N/A,,Mostly Cloudy,180,2013-09-07 11:44:00
7:50 AM,46.4,44.6,93,30.10,0.2,SSW,3.5,-,N/A,Fog,Fog,210,2013-09-07 11:50:00
7:53 AM,46.9,45.0,93,30.10,0.2,Calm,Calm,-,N/A,Fog,Fog,0,2013-09-07 11:53:00
8:07 AM,46.4,46.4,100,30.10,0.5,Calm,Calm,-,N/A,Fog,Fog,0,2013-09-07 12:07:00
8:12 AM,46.4,46.4,100,30.10,2.5,Calm,Calm,-,N/A,,Mostly Cloudy,0,2013-09-07 12:12:00
8:19 AM,48.2,46.4,93,30.10,10.0,South,3.5,-,N/A,,Scattered Clouds,190,2013-09-07 12:19:00
8:53 AM,52.0,48.0,86,30.10,10.0,Calm,Calm,-,N/A,,Partly Cloudy,0,2013-09-07 12:53:00
9:53 AM,57.0,48.9,74,30.09,10.0,Calm,Calm,-,N/A,,Clear,0,2013-09-07 13:53:00
10:53 AM,66.0,50.0,56,30.07,10.0,Calm,Calm,-,N/A,,Clear,0,2013-09-07 14:53:00
11:53 AM,66.9,50.0,54,30.04,10.0,WSW,4.6,-,N/A,,Clear,240,2013-09-07 15:53:00
12:53 PM,69.1,48.9,49,30.01,10.0,SW,6.9,-,N/A,,Clear,230,2013-09-07 16:53:00
1:53 PM,70.0,48.0,46,30.00,10.0,SW,8.1,-,N/A,,Partly Cloudy,230,2013-09-07 17:53:00
2:53 PM,69.1,51.1,53,29.99,10.0,West,4.6,-,N/A,,Mostly Cloudy,280,2013-09-07 18:53:00
3:53 PM,69.1,53.1,57,29.97,10.0,West,3.5,-,N/A,,Overcast,260,2013-09-07 19:53:00
4:53 PM,69.1,55.9,63,29.95,10.0,Calm,Calm,-,N/A,,Overcast,0,2013-09-07 20:53:00
5:53 PM,66.9,57.9,73,29.94,10.0,SSE,3.5,-,0.00,,Overcast,160,2013-09-07 21:53:00
6:53 PM,66.0,55.9,70,29.94,10.0,Calm,Calm,-,0.00,,Mostly Cloudy,0,2013-09-07 22:53:00
7:53 PM,66.0,54.0,65,29.94,10.0,WSW,9.2,-,N/A,,Overcast,240,2013-09-07 23:53:00
8:53 PM,62.1,57.0,84,29.94,10.0,WSW,9.2,-,0.00,Rain,Light Rain,250,2013-09-08 00:53:00
9:53 PM,62.1,57.0,84,29.93,10.0,WSW,9.2,-,0.01,,Overcast,240,2013-09-08 01:53:00
10:53 PM,62.1,57.0,84,29.92,10.0,WSW,6.9,-,N/A,,Overcast,240,2013-09-08 02:53:00
11:53 PM,61.0,57.0,87,29.90,10.0,Calm,Calm,-,N/A,,Overcast,0,2013-09-08 03:53:00